sat.trackr.live / text

‹ back to catalog

LEMUR-2-THERMORAPTOR

NORAD 63354 · 2025-061D

PAYLOAD ACTIVE UNKNOWN

§ Identity

Operator
Country
US
Launch date
2025-03-26
Launch site
RLLB
Launch vehicle
Mass (kg)
RCS (m²)

Purposes: earth_obs

External: N2YO · Heavens-Above · Gunter

§ Orbital elements

Epoch: 2026-09-19T18:15:40.940064Z

Period
95.07 min
Inclination
97.5812°
Eccentricity
0.0017050
Mean motion
15.14679454 rev/d
Perigee alt
510.2 km
Apogee alt
533.7 km
Semi-major
6,900.1 km
B*
1.5141e-4
RAAN
238.3901°
Arg perigee
291.8650°
Mean anomaly
68.0768°
Rev number
8,192

§ Raw data

LEMUR-2-THERMORAPTOR1 63354U 25061D   26262.76089051  .00002742  00000+0  15141-3 0  99982 63354  97.5812 238.3901 0017050 291.8650  68.0768 15.14679454 81926

JSON: /api/v1/satellites/63354 · /tle

For live sub-satellite position, see the globe view (requires WebGL).

§ Visibility from observer

Set your observer location to see the next 7 days of passes ≥ 10°. The values pass through the URL so the page stays shareable.

No JS? Fill the form by hand. The geolocation button needs JavaScript.